User: anonymous   Login
Location: Namasale
(1.5000°N, 32.6167°E)
Time: 14:03:08
(UTC+00:00)
Language:

Cosmos 1340 Rocket - Orbit

View from above orbital plane
View from above orbital plane
View from above satellite
View from above satellite

Ground track
Ground track

The orbit data is extracted from the following two-line orbital elements,

1 13068U 82013B   20191.86172960 -.00000102 +00000-0 -82594-5 0  9992
2 13068 081.2014 024.8042 0020376 218.2307 141.7474 15.07438795091745
Epoch (UTC): 09 July 2020 20:40:53
Eccentricity: 0.0020376
inclination: 81.2014°
perigee height: 530 km
apogee height: 558 km
right ascension of ascending node: 24.8042°
argument of perigee: 218.2307°
revolutions per day: 15.07438795
mean anomaly at epoch: 141.7474°
orbit number at epoch: 9174

The dashed part of the orbit path shows where the satellite is in the earth's shadow,  

DLR